This is the latest recevied weather packets stored in our database for station/object dl1wer-13. If no packets are shown the sender has not sent any weather packets the latest 10 day(s).
| Time | Temp. | Humidity | Pressure | Rain* | Wind** | Luminosity | Snow |
|---|---|---|---|---|---|---|---|
| 1777639217 | 20° C | 23% | 1050.5 hPa | 0 mm | - | - | - |
| 1777638618 | 20° C | 23% | 1050.7 hPa | 0 mm | - | - | - |
| 1777638017 | 20° C | 24% | 1050.7 hPa | 0 mm | - | - | - |
| 1777637417 | 19.44° C | 23% | 1050.9 hPa | 0 mm | - | - | - |
| 1777636818 | 19.44° C | 23% | 1050.9 hPa | 0 mm | - | - | - |
| 1777636217 | 19.44° C | 22% | 1050.9 hPa | 0 mm | - | - | - |
| 1777635617 | 19.44° C | 23% | 1050.8 hPa | 0 mm | - | - | - |
| 1777635018 | 18.89° C | 23% | 1051 hPa | 0 mm | - | - | - |
| 1777634419 | 18.33° C | 22% | 1051.2 hPa | 0 mm | - | - | - |
| 1777633819 | 18.33° C | 23% | 1051.4 hPa | 0 mm | - | - | - |
| 1777633218 | 17.78° C | 22% | 1051.3 hPa | 0 mm | - | - | - |
| 1777632617 | 17.78° C | 22% | 1051.4 hPa | 0 mm | - | - | - |
| 1777632018 | 17.22° C | 26% | 1051.5 hPa | 0 mm | - | - | - |
| 1777631418 | 17.22° C | 28% | 1051.5 hPa | 0 mm | - | - | - |
| 1777630818 | 16.67° C | 26% | 1051.7 hPa | 0 mm | - | - | - |
| 1777630217 | 16.67° C | 26% | 1051.8 hPa | 0 mm | - | - | - |
| 1777629619 | 16.67° C | 24% | 1051.8 hPa | 0 mm | - | - | - |
| 1777629018 | 16.67° C | 24% | 1051.7 hPa | 0 mm | - | - | - |
| 1777628417 | 16.11° C | 26% | 1051.8 hPa | 0 mm | - | - | - |
| 1777627818 | 15.56° C | 26% | 1051.9 hPa | 0 mm | - | - | - |
| 1777627217 | 15.56° C | 26% | 1052 hPa | 0 mm | - | - | - |
| 1777626617 | 15° C | 28% | 1052 hPa | 0 mm | - | - | - |
| 1777626018 | 14.44° C | 30% | 1052.1 hPa | 0 mm | - | - | - |
| 1777625417 | 14.44° C | 30% | 1052 hPa | 0 mm | - | - | - |
| 1777624817 | 13.89° C | 31% | 1051.9 hPa | 0 mm | - | - | - |
* Rain latest hour (hover to see other rain measurements)
** Current wind speed in m/s (hover to see current wind gust speed)